Location: *
(41.7492°S, 135.4150°W)
Time: 11:14:47
(UTC+00:00)

Envisat - Pass Details

Date: 22 January 2022
Orbit: 764 x 765 km, 98.2° (Epoch: 25 May)

Event Time Altitude Azimuth Distance (km) Brightness Sun altitude
Rises 12:12:03 0° 41° (NE) 3,231 6.2 -16.0°
Reaches altitude 10° 12:14:32 10° 50° (NE) 2,313 5.5 -15.7°
Maximum altitude 12:19:03 33° 112° (ESE) 1,289 4.8 -15.1°
Drops below altitude 10° 12:23:37 10° 174° (S) 2,340 6.3 -14.5°
Sets 12:26:08 0° 183° (S) 3,274 6.9 -14.2°
